User: anonymous   Login
Location: Myra
(43.4160°N, 88.0960°W)
Time: 00:10:25
(UTC-06:00)
Language:

SL-8 R/B - Orbit

View from above orbital plane
View from above orbital plane
View from above satellite
View from above satellite

Ground track
Ground track

The orbit data is extracted from the following two-line orbital elements,

1 33066U 08031G   17323.51226748  .00000048  00000-0  40773-4 0  9998
2 33066  48.4432 103.8446 0007307  51.5895 345.9379 14.69583317505604
Epoch (UTC): 19 November 2017 12:17:39
Eccentricity: 0.0007307
inclination: 48.4432°
perigee height: 657 km
apogee height: 667 km
right ascension of ascending node: 103.8446°
argument of perigee: 51.5895°
revolutions per day: 14.69583317
mean anomaly at epoch: 345.9379°
orbit number at epoch: 50560

The dashed part of the orbit path shows where the satellite is in the earth's shadow,  

DLR